Regional Weather Roundup
Issued by NWS New Orleans/Baton Rouge, LA

Home | Current Version | Previous Version | Graphics & Text | Print | Product List | Glossary On
Versions: 1 2 3 4 5 6 7 8 9 10 11 12 13 14 15 16 17 18 19 20 21 22 23 24 25 26 27 28 29 30 31 32 33 34 35 36 37 38 39 40 41 42 43 44 45 46 47 48 49 50
322
ASUS44 KLIX 280705
RWRLIX
NEW ORLEANS REGIONAL WEATHER ROUNDUP
NATIONAL WEATHER SERVICE NEW ORLEANS LA
100 AM CST SUN DEC 28 2014

NOTE: "FAIR" INDICATES FEW OR NO CLOUDS BELOW 12,000 FEET WITH NO
      SIGNIFICANT WEATHER AND/OR OBSTRUCTIONS TO VISIBILITY.
      SKY/WX - SKY CONDITION AND SIGNIFICANT WEATHER.
      TMP - AIR TEMPERATURE.     DP    - DEWPOINT TEMPERATURE.
      RH  - RELATIVE HUMIDITY.   PRES  - PRESSURE.
      HI  - HEAT INDEX.          WCI   - WIND CHILL INDEX.

*  THESE STATIONS ARE NOT NWS OR FAA STATIONS AND ARE NOT UNDER
   NWS QUALITY CONTROL.

LAZ038-040-048-061>063-065>067-069-280800-
SOUTHEAST LOUISIANA

CITY           SKY/WX    TMP DP  RH WIND       PRES   REMARKS
N.O. AUDUBON   NOT AVBL
N.O. INTL ARPT FOG       69  67  93 SW7       30.05S VSB 1/8
N.O. LAKEFRONT CLOUDY    70  67  90 S9        30.05F FOG
N.O. DOWNTOWN* CLOUDY    70  64  83 S8        30.06S
SLIDELL        CLOUDY    69  67  93 S5        30.04F FOG
BATON ROUGE    CLOUDY    71  69  93 SW12      30.03F
BOOTHVILLE     FOG       68  68 100 S3        30.07F VSB 1/4
BELLE CHASSE   FOG       69  67  93 S8        30.05F VSB 1/2
BOGALUSA*        N/A     71  67  88 SW7       30.05F
GALLIANO*      FOG       61  60  97 MISG      30.07S VSB<1/4
NEW ROADS*     DRIZZLE   65  65  97 NW12      30.05S
GONZALES*      CLOUDY    70  70 100 S5        30.04S FOG
HAMMOND*       NOT AVBL
HOUMA*         CLOUDY    69  69  98 CALM      30.06S FOG
PORT FOURCHON* FOG       68  68 100 SW6       30.10F VSB 1/2

$$

MSZ070-080>082-280800-
SOUTHERN MISSISSIPPI

CITY           SKY/WX    TMP DP  RH WIND       PRES   REMARKS
MCCOMB         CLOUDY    70  68  93 SW6       30.02F FOG
GULFPORT       FOG       64  64 100 S5        30.05F VSB 1
BILOXI         FOG       64  64 100 S5        30.05F VSB 1/2
PASCAGOULA     FOG       65  65 100 S6        30.06F VSB 1/2

$$

COASTAL OBSERVATIONS
LAKE AND NEARSHORE STATIONS

STATION/POSITION TIME  TEMP    WIND        PRES    WAVE
                       AIR SEA DIR/SP/G            HT/PER
                 (UTC) (F)     (DEG/KT/KT) (MB)    (FT/S)
PASCAGOULA       0700   66     150/  6/  8 1017.4
WAVELAND YACHT   0700   67     190/  6/  8 1016.7
GRAND ISLE       0700   66 64   CALM  /  1 1018.7
SOUTHWEST PASS   0700   67                 1018.6
NEW CANAL        0700   69 58  210/  6/ 10 1017.8
SHELL BEACH      0700   68 61  180/  6/  8 1017.8

OFFSHORE STATIONS

STATION/POSITION TIME  TEMP    WIND        PRES    WAVE
                       AIR SEA DIR/SP/G            HT/PER
                 (UTC) (F)     (DEG/KT/KT) (MB)    (FT/S)
64 S DAUPHIN ISL 0700   73 74  170/ 16/ 19 1018.0    4/ 7

$$




USA.gov is the U.S. government's official web portal to all federal, state and local government web resources and services.